Flag for Canada Weather past 2 weeks in Peterborough, Ontario, Canada

Now
70 °F

Partly sunny.


Feels Like: 70 °F
Forecast: 56 / 79 °F
Wind: 8 mph from South

Location: Peterborough Airport

Current Time: Aug 30, 2014 at 10:55:33 AM

Latest Report: Aug 30, 2014 at 10:00 AM


Visibility: 9 mi

Pressure: 30.05 "Hg

Humidity: 73%

Dew point: 61 °F

Location of PeterboroughLocation

Historic Weather in Peterborough — Graph

°F

Peterborough temperature yesterday

Maximum temperature yesterday: 72 °F (at 2:00 PM)
Minimum temperature yesterday: 43 °F (at 5:50 AM)
Average temperature yesterday: 55 °F

Past Weeks' High & Low Weather Summary

 TemperatureHumidityPressure
High81 °F (Aug 26, 2:00 PM)100% (Aug 16, 9:00 PM)30.22 "Hg (Aug 16, 9:00 PM)
Low43 °F (Aug 29, 5:50 AM)46% (Aug 15, 3:00 PM)29.77 "Hg (Aug 16, 6:00 PM)
Average63 °F84%30.01 "Hg
* Reported Aug 15 9:00 AM — Aug 30 9:00 AM, Peterborough, Weather by CustomWeather, © 2014

Note: Actual official high and low records may vary slightly from our data, if they occured in-between our weather recording intervals... More about our weather records

Advertising

Peterborough weather history for previous 24 hours

 ConditionsComfort  
Time TempWeatherWind HumidityBarometerVisibility
9:00 AM
Aug 30
66 °FPartly sunny.6 mph83%30.06 "Hg9 mi
8:00 AM63 °FPartly sunny.2 mph94%30.07 "Hg9 mi
7:00 AM57 °FPassing clouds.No wind94%30.07 "Hg9 mi
6:00 AM57 °FMostly cloudy.No wind100%30.06 "Hg9 mi
5:00 AM59 °FOvercast.No wind94%30.06 "Hg9 mi
4:00 AM57 °FOvercast.No wind100%30.08 "Hg9 mi
3:00 AM57 °FOvercast.No wind94%30.08 "Hg9 mi
2:00 AM57 °FOvercast.2 mph94%30.11 "Hg9 mi
1:00 AM59 °FOvercast.No wind88%30.12 "Hg9 mi
12:00 AM59 °FOvercast.No wind88%30.12 "Hg9 mi
11:00 PM
Aug 29
55 °FPassing clouds.3 mph94%30.14 "Hg9 mi
10:00 PM57 °FPassing clouds.No wind88%30.14 "Hg9 mi
9:00 PM57 °FPassing clouds.No wind88%30.14 "Hg9 mi
8:00 PM61 °FPartly sunny.5 mph83%30.14 "Hg9 mi
7:00 PM66 °FSunny.3 mph64%30.14 "Hg9 mi
6:00 PM70 °FPartly sunny.8 mph53%30.15 "Hg9 mi
5:00 PM70 °FSunny.7 mph57%30.16 "Hg9 mi
3:00 PM70 °FSunny.3 mph57%30.17 "Hg9 mi
2:00 PM72 °FSunny.7 mph53%30.19 "Hg9 mi
1:00 PM70 °FSunny.6 mph57%30.20 "Hg9 mi
12:00 PM68 °FScattered clouds.3 mph56%30.21 "Hg9 mi
11:00 AM66 °FScattered clouds.5 mph64%30.21 "Hg9 mi
10:00 AM63 °FPassing clouds.2 mph73%30.22 "Hg9 mi
Weather by CustomWeather, © 2014

See weather overviewHow to use our weather pages